SCP
0 0 0 0 0 0 0 0 0 0 0 0 0 0 0 0 0 0 0 0 0 0 0 0 0 0 0 0 0 0 0 0 0 0 0 0 0 0 0 0 0 0 0
0 0 0 0 0 0 0 0 0 0 0 0 0 0 0 0 0 0 0 0 0 0 0 0 0 0 0 0 0 0 0 0 0 0 0 0 0 0 0 0 0 0 0
0 0 0 0 0 0 0 0 0 0 0 0 0 0 0 0 0 0 0 0 0 0 0 0 0 0 0 0 0 0 0 0 0 0 0 0 0 0 0 0 0 0 0
-0 0 0 0 0 0 0 0 0 0 0 0 0 0 0 0 0 0 0 0 0 0 0 0 0 0 0 0 0 0 0 0 0 0 0 0 0 0 0 0 0 0 0
-0 -0 -0 0 0 0 0 0 0 0 0 0 0 0 0 0 0 0 0 0 0 0 0 0 0 0 0 0 0 0 0 0 0 0 0 0 0 0 0 0 0 0 0
0 0 0 0 -0 -0 0 0 0 0 0 0 0 0 0 0 0 0 0 0 0 0 0 0 0 0 0 0 0 0 -0 -0 0 0 0 0 0 0 0 0 0 0 0
0 0 0 -0 -0 -0 -0 -0 0 0 0 0 0 0 0 0 0 0 0 0 0 0 0 0 0 0 0 0 -0 -0 -0 -0 0 0 0 0 0 0 0 0 0 0 0
-0 -0 -0 0 -0 -0 0 0 0 0 0 0 0 0 0 0 0 0 0 0 0 0 0 0 0 0 -0 -0 -0 -0 0 0 0 0 0 0 0 0 0 0 0 0 0
0 0 0 0 0 -0 0 -0 -0 -0 -0 0 0 0 0 -0 -0 0 -0 0 -0 -0 0 0 -0 -0 -0 -0 -0 0 0 0 0 0 0 0 0 0 0 0 0 0 0
0 0 0 0 -0 -0 -0 -0 -0 -0 -0 0 -0 0 0 0 0 0 0 0 0 0 0 0 -0 -0 -0 -0 0 0 0 0 0 0 0 0 0 0 0 0 0 0 0
0 0 -0 0 -0 -0 -0 -0 -0 -0 -0 0 0 0 0 0 0 -0 -0 -0 -0 0 0 -0 -0 -0 -0 -0 -0 0 0 0 0 0 0 0 0 0 0 0 0 0 0
0 0 0 0 0 0 0 0 0 0 0 0 0 0 0 0 -0 0 0 0 0 0 0 -0 -0 -0 -0 -0 0 0 0 0 0 0 0 0 0 0 0 0 0 0 0
0 0 0 0 0 0 0 0 0 0 0 0 0 0 -0 -0 -0 0 0 0 0 -0 -0 -0 -0 -0 -0 0 0 0 0 0 0 0 0 0 0 0 -0 0 0 0 0
0 0 0 0 0 0 0 0 -0 -0 -0 -0 -0 -0 -0 -0 -0 -0 -0 -0 -0 -0 -0 0 0 0 0 0 0 0 0 0 0 0 0 0 0 0 0 0 0 0 0
0 -0 -0 -0 -0 -0 -0 -0 -0 -0 -0 0 -0 -0 -0 -0 -0 -0 -0 -0 -0 0 0 0 0 0 0 0 0 0 0 0 0 0 0 0 0 0 0 0 0 0 0
-0 -0 -0 -0 0 -0 0 -0 -0 -0 -0 -0 0 -0 -0 -0 0 0 0 0 0 0 0 0 0 0 0 0 0 0 0 0 0 0 0 0 0 0 0 0 0 0 0
-0 0 0 0 0 0 0 0 0 0 0 0 0 0 0 0 0 0 0 0 0 0 0 0 0 0 0 0 0 0 0 0 0 0 0 0 0 0 0 0 0 0 0
0 0 0 0 0 0 0 0 0 0 0 0 0 0 0 0 0 0 0 0 0 0 0 0 0 0 0 0 0 0 0 0 0 0 0 0 0 0 0 0 0 0 0
0 0 0 0 0 0 0 0 0 0 0 0 0 0 0 0 0 0 0 0 0 0 0 0 0 0 0 0 0 0 0 0 0 0 0 0 0 0 0 0 0 0 0
0 0 0 0 0 0 0 0 0 0 0 0 0 0 0 0 0 0 0 0 0 0 0 0 0 0 0 0 0 0 0 0 0 0 0 0 0 0 0 0 0 0 0
0 0 0 0 0 0 0 0 0 0 0 0 0 0 0 0 0 0 0 0 0 0 0 0 0 0 0 0 0 0 0 0 0 0 0 0 0 0 0 0 0 0 0
0 0 0 0 0 0 0 0 0 0 0 0 0 0 0 0 0 0 0 0 0 0 0 0 0 0 0 0 0 0 0 0 0 0 0 0 0 0 0 0 0 0 0
0 0 0 0 0 0 0 0 0 0 0 0 0 0 0 0 0 0 0 0 0 0 0 0 0 0 0 0 0 0 0 0 0 0 0 0 0 0 0 0 0 0 0
0 0 0 0 0 0 0 0 0 0 0 0 0 0 0 0 0 0 0 0 0 0 0 0 0 0 0 0 0 0 0 0 0 0 0 0 0 0 0 0 0 0 0
0 0 0 0 0 0 0 0 0 0 0 0 0 0 0 0 0 0 0 0 0 0 0 0 0 0 0 0 0 0 0 0 0 0 0 0 0 0 0 0 0 0 0
0 0 0 0 0 0 0 0 0 0 0 0 0 0 0 0 0 0 0 0 0 0 0 0 0 0 0 0 0 0 0 0 0 0 0 0 0 0 0 0 0 0 0
Wind_Speed_500mb
21 21 21 18 14 14 17 22 25 31 35 33 33 28 15 17 18 23 21 22 24 20 19 15 18 19 21 23 23 20 22 23 26 29 31 35 36 31 29 31 35 36 37
24 21 19 16 13 9 4 6 13 16 26 26 24 27 19 17 17 22 25 21 21 14 12 13 18 18 22 19 14 15 18 22 24 25 20 19 23 26 29 29 30 33 35
26 24 22 18 16 12 9 5 5 9 14 20 21 26 18 15 19 24 27 20 16 9 5 9 14 14 12 12 15 17 17 13 11 11 14 18 20 26 29 31 32 34 35
23 22 21 18 16 16 15 14 14 13 12 13 17 16 5 9 15 17 8 8 2 5 10 13 10 9 7 8 8 6 2 5 7 10 13 18 26 32 36 37 38 44 37
21 17 20 18 16 16 18 18 20 21 17 19 15 15 11 11 13 8 10 11 9 12 15 12 10 7 6 6 5 5 7 11 13 14 18 25 32 38 46 51 50 52 53
19 13 14 16 13 15 19 21 22 23 22 26 23 14 13 14 9 12 7 11 12 10 11 13 14 16 14 9 10 10 12 15 16 21 27 31 37 43 44 48 58 68 67
17 17 11 17 16 15 15 15 17 18 21 21 21 20 15 23 23 18 17 16 20 23 21 20 20 19 18 16 16 15 15 16 20 25 29 36 37 40 44 50 54 54 55
16 16 16 19 16 14 12 10 13 14 14 17 19 19 20 26 27 27 28 25 22 23 25 23 20 22 20 19 18 15 18 21 22 27 31 32 36 41 46 48 49 50 48
18 17 20 22 20 17 13 12 14 16 18 21 18 22 21 27 26 22 22 21 21 25 25 23 22 20 20 17 17 18 17 17 22 25 28 31 35 38 41 43 46 51 57
15 18 20 20 19 14 13 17 19 20 20 22 22 26 23 23 25 25 24 23 24 23 23 22 21 19 19 19 15 13 13 18 22 23 25 26 28 32 35 41 46 51 55
7 11 14 15 14 12 12 12 15 16 17 20 18 24 23 24 25 24 22 23 21 21 21 22 21 19 18 16 15 17 17 18 17 18 18 19 26 30 34 38 41 45 48
4 3 7 9 9 8 11 10 9 10 11 12 12 15 21 22 22 19 19 20 20 19 19 19 18 19 17 17 16 16 17 17 17 15 17 22 24 29 34 35 39 41 43
11 12 11 10 11 13 15 17 17 17 16 16 18 17 16 18 18 19 19 21 21 20 18 18 17 16 15 15 15 16 18 18 16 17 21 25 29 31 30 30 32 33 36
18 18 18 17 17 18 16 16 17 17 16 15 13 13 16 18 19 19 20 19 18 18 17 18 19 17 15 13 13 15 14 13 14 16 21 25 27 27 30 33 31 26 26
27 25 23 22 23 23 22 21 19 18 17 16 16 17 16 15 15 15 16 16 18 20 22 22 19 15 11 9 8 8 8 9 11 15 19 23 26 28 30 34 35 36 35
34 32 29 27 26 25 26 25 24 23 23 23 24 23 21 19 18 19 21 23 25 26 25 23 17 13 11 8 8 8 7 7 8 12 17 20 22 26 31 34 35 38 40
43 37 37 36 34 31 31 31 31 31 32 31 29 27 26 27 26 25 26 28 29 31 31 28 20 17 16 16 17 15 13 11 10 11 14 17 19 23 25 29 34 39 42
53 49 47 45 42 40 38 36 36 38 37 36 35 34 34 33 34 34 34 34 35 35 36 35 28 24 23 23 21 20 18 15 13 13 14 14 14 16 20 24 28 32 36
63 60 58 55 51 49 48 46 46 45 44 44 44 44 42 41 42 41 41 41 39 36 38 38 36 31 29 28 26 25 24 22 16 13 12 13 13 14 15 16 19 24 27
71 68 66 64 62 61 58 58 57 55 53 53 52 49 48 50 49 45 44 42 41 40 42 41 40 37 33 32 30 28 28 25 21 17 14 12 11 11 9 11 13 16 18
76 76 74 73 74 71 69 67 63 62 60 57 56 52 53 55 52 52 52 49 44 42 42 42 43 41 39 38 36 34 33 32 29 26 22 18 15 12 8 4 3 6 10
86 85 84 83 80 79 78 75 74 71 68 66 61 57 59 63 62 61 60 56 50 48 47 47 45 43 42 41 40 39 39 37 34 31 28 24 22 19 16 13 9 9 11
86 88 90 90 88 86 84 84 82 80 77 73 67 64 67 69 66 64 62 57 54 54 53 52 49 48 46 44 43 42 42 39 37 36 34 31 28 25 23 23 21 19 18
78 87 90 92 93 93 92 90 88 85 81 77 73 70 70 72 69 65 63 61 58 58 58 55 53 51 49 48 48 47 45 45 43 43 42 40 38 35 32 31 30 27 26
70 80 87 93 96 97 96 95 93 90 85 78 75 74 73 72 71 68 65 64 62 62 60 58 56 55 54 53 53 51 49 51 49 49 48 47 46 44 41 39 38 36 33
65 65 72 82 91 95 97 97 95 90 85 79 74 71 71 71 70 68 66 65 65 64 62 61 59 57 56 56 56 55 55 56 55 54 53 54 53 50 49 47 46 45 42
Wind_Direction_500mb
8 2 353 342 328 304 252 234 226 222 222 230 239 229 238 248 258 262 224 215 227 231 228 241 256 270 271 272 273 274 277 271 278 290 293 298 306 312 319 329 330 326 323
19 17 13 9 359 347 330 225 213 218 218 218 223 233 235 250 241 244 225 229 233 235 239 254 265 273 273 277 265 270 274 282 289 292 298 304 318 331 342 348 345 340 339
21 20 20 29 41 54 65 86 133 165 183 202 207 244 223 248 214 236 230 221 211 286 296 257 245 231 242 241 267 267 281 299 304 310 329 332 337 348 356 359 2 357 356
30 33 39 46 56 65 91 98 119 141 162 192 208 169 201 224 208 167 162 156 213 221 247 233 222 213 229 235 260 268 360 341 344 359 352 359 4 3 4 358 7 8 15
29 38 56 57 65 81 94 115 128 134 140 153 188 190 223 198 181 185 181 219 223 201 198 190 200 185 180 130 100 73 42 34 24 14 19 15 11 10 9 8 9 8 10
38 50 71 72 79 99 104 109 118 134 148 149 136 150 181 191 170 161 168 173 183 164 158 142 128 120 114 103 84 66 52 47 34 24 25 21 19 16 13 8 12 11 8
32 34 72 78 88 93 81 105 117 129 134 138 139 142 152 151 145 157 149 156 144 135 126 122 125 117 105 98 83 65 55 48 38 31 27 24 17 15 14 16 15 15 7
60 54 83 82 82 85 95 111 110 105 131 134 135 134 139 135 134 135 130 131 133 131 126 123 120 109 99 90 81 67 51 42 37 33 30 22 19 17 16 15 14 16 11
81 81 92 85 83 82 74 92 107 107 128 129 135 140 138 128 120 123 123 135 138 133 124 121 114 107 101 97 80 64 53 45 42 35 30 25 20 16 14 12 16 14 17
92 97 99 98 91 100 113 118 114 118 137 129 128 129 140 148 133 140 143 132 132 130 130 124 119 119 104 83 80 76 66 53 44 37 30 23 19 19 16 18 18 18 20
73 104 112 110 113 126 123 113 112 121 132 135 142 132 145 134 143 129 135 140 132 134 134 134 131 110 102 106 95 80 70 62 54 42 32 26 24 20 22 20 21 22 19
238 203 147 127 127 130 127 120 128 131 121 123 131 142 146 139 125 140 144 137 146 144 139 130 129 127 116 100 92 86 76 65 53 43 37 37 31 26 24 21 18 20 20
221 218 210 189 184 179 166 164 167 159 151 156 151 144 140 144 158 164 162 162 161 151 155 148 134 130 128 115 101 88 72 60 49 38 36 35 33 30 27 25 22 16 12
238 228 217 213 211 206 194 187 175 169 165 158 157 168 177 181 181 180 177 175 173 169 169 166 163 157 137 123 103 85 76 68 57 48 47 43 39 37 33 33 31 29 18
236 238 232 220 215 213 208 203 198 195 190 187 193 198 201 203 205 202 205 208 203 199 197 192 181 168 159 143 122 117 105 84 68 60 60 53 47 45 44 43 37 33 31
237 237 239 240 235 228 223 218 215 217 217 214 216 213 214 217 218 223 225 228 228 223 217 209 200 197 198 200 207 193 167 132 101 80 72 65 59 52 46 47 44 41 38
242 239 238 239 241 241 238 235 230 229 228 227 226 227 228 228 228 229 233 237 236 235 232 225 215 221 228 233 232 222 210 183 149 112 93 77 68 60 54 55 55 50 44
243 240 239 241 242 243 243 242 241 241 239 237 236 236 235 235 231 231 232 237 240 242 241 238 228 228 232 234 237 239 238 221 179 147 128 110 93 79 68 64 60 53 48
247 245 244 244 243 243 242 240 240 240 240 240 239 240 240 239 238 237 238 240 240 245 249 249 243 237 238 239 236 237 237 230 207 180 162 145 131 115 98 74 60 57 57
247 247 246 246 246 246 245 245 244 244 243 242 243 244 243 244 246 249 250 249 249 249 248 248 247 244 241 241 238 236 236 231 224 208 198 188 168 149 124 97 81 67 54
248 249 249 248 247 247 247 248 251 252 252 251 251 250 250 251 252 251 251 252 252 254 255 253 249 245 241 238 236 233 233 231 226 221 214 209 205 197 187 155 70 28 24
247 248 248 249 249 248 248 249 249 250 251 252 252 250 248 250 250 250 252 253 254 253 252 250 248 246 244 243 239 235 234 233 230 228 227 224 223 223 228 240 261 301 318
249 249 250 250 250 251 251 251 251 251 252 252 252 251 249 252 253 253 255 255 253 253 252 252 249 247 246 244 242 240 239 239 238 237 237 236 238 241 246 258 268 281 290
252 251 251 251 252 252 253 253 254 255 255 254 255 255 254 255 257 256 255 254 252 251 251 250 251 249 247 246 244 242 240 241 242 241 241 243 246 249 253 257 264 271 278
252 251 251 251 251 251 253 253 254 255 258 258 257 257 256 256 257 257 256 254 252 251 251 252 252 250 248 247 246 244 243 244 244 244 244 247 250 253 256 260 263 266 269
250 254 255 253 253 253 253 254 255 257 258 260 261 260 259 258 258 257 256 254 253 252 252 251 252 251 250 248 247 246 245 246 247 247 248 250 252 255 258 260 262 265 267
Wind_Speed_850mb
21 21 21 18 14 14 17 22 25 31 35 33 33 28 15 17 18 23 21 22 24 20 19 15 18 19 21 23 23 20 22 23 26 29 31 35 36 31 29 31 35 36 37
24 21 19 16 13 9 4 6 13 16 26 26 24 27 19 17 17 22 25 21 21 14 12 13 18 18 22 19 14 15 18 22 24 25 20 19 23 26 29 29 30 33 35
26 24 22 18 16 12 9 5 5 9 14 20 21 26 18 15 19 24 27 20 16 9 5 9 14 14 12 12 15 17 17 13 11 11 14 18 20 26 29 31 32 34 35
23 22 21 18 16 16 15 14 14 13 12 13 17 16 5 9 15 17 8 8 2 5 10 13 10 9 7 8 8 6 2 5 7 10 13 18 26 32 36 37 38 44 37
21 17 20 18 16 16 18 18 20 21 17 19 15 15 11 11 13 8 10 11 9 12 15 12 10 7 6 6 5 5 7 11 13 14 18 25 32 38 46 51 50 52 53
19 13 14 16 13 15 19 21 22 23 22 26 23 14 13 14 9 12 7 11 12 10 11 13 14 16 14 9 10 10 12 15 16 21 27 31 37 43 44 48 58 68 67
17 17 11 17 16 15 15 15 17 18 21 21 21 20 15 23 23 18 17 16 20 23 21 20 20 19 18 16 16 15 15 16 20 25 29 36 37 40 44 50 54 54 55
16 16 16 19 16 14 12 10 13 14 14 17 19 19 20 26 27 27 28 25 22 23 25 23 20 22 20 19 18 15 18 21 22 27 31 32 36 41 46 48 49 50 48
18 17 20 22 20 17 13 12 14 16 18 21 18 22 21 27 26 22 22 21 21 25 25 23 22 20 20 17 17 18 17 17 22 25 28 31 35 38 41 43 46 51 57
15 18 20 20 19 14 13 17 19 20 20 22 22 26 23 23 25 25 24 23 24 23 23 22 21 19 19 19 15 13 13 18 22 23 25 26 28 32 35 41 46 51 55
7 11 14 15 14 12 12 12 15 16 17 20 18 24 23 24 25 24 22 23 21 21 21 22 21 19 18 16 15 17 17 18 17 18 18 19 26 30 34 38 41 45 48
4 3 7 9 9 8 11 10 9 10 11 12 12 15 21 22 22 19 19 20 20 19 19 19 18 19 17 17 16 16 17 17 17 15 17 22 24 29 34 35 39 41 43
11 12 11 10 11 13 15 17 17 17 16 16 18 17 16 18 18 19 19 21 21 20 18 18 17 16 15 15 15 16 18 18 16 17 21 25 29 31 30 30 32 33 36
18 18 18 17 17 18 16 16 17 17 16 15 13 13 16 18 19 19 20 19 18 18 17 18 19 17 15 13 13 15 14 13 14 16 21 25 27 27 30 33 31 26 26
27 25 23 22 23 23 22 21 19 18 17 16 16 17 16 15 15 15 16 16 18 20 22 22 19 15 11 9 8 8 8 9 11 15 19 23 26 28 30 34 35 36 35
34 32 29 27 26 25 26 25 24 23 23 23 24 23 21 19 18 19 21 23 25 26 25 23 17 13 11 8 8 8 7 7 8 12 17 20 22 26 31 34 35 38 40
43 37 37 36 34 31 31 31 31 31 32 31 29 27 26 27 26 25 26 28 29 31 31 28 20 17 16 16 17 15 13 11 10 11 14 17 19 23 25 29 34 39 42
53 49 47 45 42 40 38 36 36 38 37 36 35 34 34 33 34 34 34 34 35 35 36 35 28 24 23 23 21 20 18 15 13 13 14 14 14 16 20 24 28 32 36
63 60 58 55 51 49 48 46 46 45 44 44 44 44 42 41 42 41 41 41 39 36 38 38 36 31 29 28 26 25 24 22 16 13 12 13 13 14 15 16 19 24 27
71 68 66 64 62 61 58 58 57 55 53 53 52 49 48 50 49 45 44 42 41 40 42 41 40 37 33 32 30 28 28 25 21 17 14 12 11 11 9 11 13 16 18
76 76 74 73 74 71 69 67 63 62 60 57 56 52 53 55 52 52 52 49 44 42 42 42 43 41 39 38 36 34 33 32 29 26 22 18 15 12 8 4 3 6 10
86 85 84 83 80 79 78 75 74 71 68 66 61 57 59 63 62 61 60 56 50 48 47 47 45 43 42 41 40 39 39 37 34 31 28 24 22 19 16 13 9 9 11
86 88 90 90 88 86 84 84 82 80 77 73 67 64 67 69 66 64 62 57 54 54 53 52 49 48 46 44 43 42 42 39 37 36 34 31 28 25 23 23 21 19 18
78 87 90 92 93 93 92 90 88 85 81 77 73 70 70 72 69 65 63 61 58 58 58 55 53 51 49 48 48 47 45 45 43 43 42 40 38 35 32 31 30 27 26
70 80 87 93 96 97 96 95 93 90 85 78 75 74 73 72 71 68 65 64 62 62 60 58 56 55 54 53 53 51 49 51 49 49 48 47 46 44 41 39 38 36 33
65 65 72 82 91 95 97 97 95 90 85 79 74 71 71 71 70 68 66 65 65 64 62 61 59 57 56 56 56 55 55 56 55 54 53 54 53 50 49 47 46 45 42
Wind_Direction_850mb
8 2 353 342 328 304 252 234 226 222 222 230 239 229 238 248 258 262 224 215 227 231 228 241 256 270 271 272 273 274 277 271 278 290 293 298 306 312 319 329 330 326 323
19 17 13 9 359 347 330 225 213 218 218 218 223 233 235 250 241 244 225 229 233 235 239 254 265 273 273 277 265 270 274 282 289 292 298 304 318 331 342 348 345 340 339
21 20 20 29 41 54 65 86 133 165 183 202 207 244 223 248 214 236 230 221 211 286 296 257 245 231 242 241 267 267 281 299 304 310 329 332 337 348 356 359 2 357 356
30 33 39 46 56 65 91 98 119 141 162 192 208 169 201 224 208 167 162 156 213 221 247 233 222 213 229 235 260 268 360 341 344 359 352 359 4 3 4 358 7 8 15
29 38 56 57 65 81 94 115 128 134 140 153 188 190 223 198 181 185 181 219 223 201 198 190 200 185 180 130 100 73 42 34 24 14 19 15 11 10 9 8 9 8 10
38 50 71 72 79 99 104 109 118 134 148 149 136 150 181 191 170 161 168 173 183 164 158 142 128 120 114 103 84 66 52 47 34 24 25 21 19 16 13 8 12 11 8
32 34 72 78 88 93 81 105 117 129 134 138 139 142 152 151 145 157 149 156 144 135 126 122 125 117 105 98 83 65 55 48 38 31 27 24 17 15 14 16 15 15 7
60 54 83 82 82 85 95 111 110 105 131 134 135 134 139 135 134 135 130 131 133 131 126 123 120 109 99 90 81 67 51 42 37 33 30 22 19 17 16 15 14 16 11
81 81 92 85 83 82 74 92 107 107 128 129 135 140 138 128 120 123 123 135 138 133 124 121 114 107 101 97 80 64 53 45 42 35 30 25 20 16 14 12 16 14 17
92 97 99 98 91 100 113 118 114 118 137 129 128 129 140 148 133 140 143 132 132 130 130 124 119 119 104 83 80 76 66 53 44 37 30 23 19 19 16 18 18 18 20
73 104 112 110 113 126 123 113 112 121 132 135 142 132 145 134 143 129 135 140 132 134 134 134 131 110 102 106 95 80 70 62 54 42 32 26 24 20 22 20 21 22 19
238 203 147 127 127 130 127 120 128 131 121 123 131 142 146 139 125 140 144 137 146 144 139 130 129 127 116 100 92 86 76 65 53 43 37 37 31 26 24 21 18 20 20
221 218 210 189 184 179 166 164 167 159 151 156 151 144 140 144 158 164 162 162 161 151 155 148 134 130 128 115 101 88 72 60 49 38 36 35 33 30 27 25 22 16 12
238 228 217 213 211 206 194 187 175 169 165 158 157 168 177 181 181 180 177 175 173 169 169 166 163 157 137 123 103 85 76 68 57 48 47 43 39 37 33 33 31 29 18
236 238 232 220 215 213 208 203 198 195 190 187 193 198 201 203 205 202 205 208 203 199 197 192 181 168 159 143 122 117 105 84 68 60 60 53 47 45 44 43 37 33 31
237 237 239 240 235 228 223 218 215 217 217 214 216 213 214 217 218 223 225 228 228 223 217 209 200 197 198 200 207 193 167 132 101 80 72 65 59 52 46 47 44 41 38
242 239 238 239 241 241 238 235 230 229 228 227 226 227 228 228 228 229 233 237 236 235 232 225 215 221 228 233 232 222 210 183 149 112 93 77 68 60 54 55 55 50 44
243 240 239 241 242 243 243 242 241 241 239 237 236 236 235 235 231 231 232 237 240 242 241 238 228 228 232 234 237 239 238 221 179 147 128 110 93 79 68 64 60 53 48
247 245 244 244 243 243 242 240 240 240 240 240 239 240 240 239 238 237 238 240 240 245 249 249 243 237 238 239 236 237 237 230 207 180 162 145 131 115 98 74 60 57 57
247 247 246 246 246 246 245 245 244 244 243 242 243 244 243 244 246 249 250 249 249 249 248 248 247 244 241 241 238 236 236 231 224 208 198 188 168 149 124 97 81 67 54
248 249 249 248 247 247 247 248 251 252 252 251 251 250 250 251 252 251 251 252 252 254 255 253 249 245 241 238 236 233 233 231 226 221 214 209 205 197 187 155 70 28 24
247 248 248 249 249 248 248 249 249 250 251 252 252 250 248 250 250 250 252 253 254 253 252 250 248 246 244 243 239 235 234 233 230 228 227 224 223 223 228 240 261 301 318
249 249 250 250 250 251 251 251 251 251 252 252 252 251 249 252 253 253 255 255 253 253 252 252 249 247 246 244 242 240 239 239 238 237 237 236 238 241 246 258 268 281 290
252 251 251 251 252 252 253 253 254 255 255 254 255 255 254 255 257 256 255 254 252 251 251 250 251 249 247 246 244 242 240 241 242 241 241 243 246 249 253 257 264 271 278
252 251 251 251 251 251 253 253 254 255 258 258 257 257 256 256 257 257 256 254 252 251 251 252 252 250 248 247 246 244 243 244 244 244 244 247 250 253 256 260 263 266 269
250 254 255 253 253 253 253 254 255 257 258 260 261 260 259 258 258 257 256 254 253 252 252 251 252 251 250 248 247 246 245 246 247 247 248 250 252 255 258 260 262 265 267